Wetterdaten: Samstag, 19.02.2011
Datum Zeit Temp. A. Feuchte A. Luftdruck Regen Wind Richtung Richtung Sonnenschein UV Solar Windben
19.02.2011 00:00 0,3 C 85 % 1017,2 hPa 0,0 mm 3,2 km/h (1 Bft) O 90 0 min 0 UV-I 0 W/m 9,7 km/h (2 Bft)
19.02.2011 00:10 0,3 C 85 % 1017,4 hPa 0,0 mm 3,2 km/h (1 Bft) O 90 0 min 0 UV-I 0 W/m 8,0 km/h (2 Bft)
19.02.2011 00:20 0,3 C 85 % 1017,5 hPa 0,0 mm 3,2 km/h (1 Bft) O 90 0 min 0 UV-I 0 W/m 8,0 km/h (2 Bft)
19.02.2011 00:30 0,3 C 85 % 1017,6 hPa 0,0 mm 3,2 km/h (1 Bft) O 90 0 min 0 UV-I 0 W/m 6,4 km/h (2 Bft)
19.02.2011 00:40 0,3 C 85 % 1017,6 hPa 0,0 mm 1,6 km/h (1 Bft) O 90 0 min 0 UV-I 0 W/m 8,0 km/h (2 Bft)
19.02.2011 00:50 0,3 C 85 % 1017,7 hPa 0,0 mm 1,6 km/h (1 Bft) O 90 0 min 0 UV-I 0 W/m 8,0 km/h (2 Bft)
19.02.2011 01:00 0,3 C 85 % 1017,6 hPa 0,0 mm 3,2 km/h (1 Bft) O 90 0 min 0 UV-I 0 W/m 6,4 km/h (2 Bft)
19.02.2011 01:10 0,3 C 85 % 1017,6 hPa 0,0 mm 3,2 km/h (1 Bft) O 90 0 min 0 UV-I 0 W/m 8,0 km/h (2 Bft)
19.02.2011 01:20 0,3 C 85 % 1017,6 hPa 0,0 mm 1,6 km/h (1 Bft) O 90 0 min 0 UV-I 0 W/m 4,8 km/h (1 Bft)
19.02.2011 01:30 0,3 C 85 % 1017,5 hPa 0,0 mm 1,6 km/h (1 Bft) O 90 0 min 0 UV-I 0 W/m 6,4 km/h (2 Bft)
19.02.2011 01:40 0,3 C 85 % 1017,5 hPa 0,0 mm 1,6 km/h (1 Bft) O 90 0 min 0 UV-I 0 W/m 6,4 km/h (2 Bft)
19.02.2011 01:50 0,3 C 85 % 1017,6 hPa 0,0 mm 1,6 km/h (1 Bft) O 90 0 min 0 UV-I 0 W/m 6,4 km/h (2 Bft)
19.02.2011 02:00 0,3 C 85 % 1017,6 hPa 0,0 mm 1,6 km/h (1 Bft) O 90 0 min 0 UV-I 0 W/m 4,8 km/h (1 Bft)
19.02.2011 02:10 0,3 C 85 % 1017,5 hPa 0,0 mm 1,6 km/h (1 Bft) O 90 0 min 0 UV-I 0 W/m 6,4 km/h (2 Bft)
19.02.2011 02:20 0,3 C 85 % 1017,5 hPa 0,0 mm 1,6 km/h (1 Bft) O 90 0 min 0 UV-I 0 W/m 6,4 km/h (2 Bft)
19.02.2011 02:30 0,3 C 85 % 1017,5 hPa 0,0 mm 1,6 km/h (1 Bft) O 90 0 min 0 UV-I 0 W/m 4,8 km/h (1 Bft)
19.02.2011 02:40 0,3 C 85 % 1017,3 hPa 0,0 mm 3,2 km/h (1 Bft) O 90 0 min 0 UV-I 0 W/m 9,7 km/h (2 Bft)
19.02.2011 02:50 0,3 C 85 % 1017,2 hPa 0,0 mm 4,8 km/h (1 Bft) O 90 0 min 0 UV-I 0 W/m 9,7 km/h (2 Bft)
19.02.2011 03:00 0,3 C 85 % 1017,1 hPa 0,0 mm 4,8 km/h (1 Bft) O 90 0 min 0 UV-I 0 W/m 11,3 km/h (2 Bft)
19.02.2011 03:10 0,3 C 85 % 1017,3 hPa 0,0 mm 4,8 km/h (1 Bft) O-SO 112 0 min 0 UV-I 0 W/m 11,3 km/h (2 Bft)
19.02.2011 03:20 0,4 C 85 % 1017,2 hPa 0,0 mm 4,8 km/h (1 Bft) O-SO 112 0 min 0 UV-I 0 W/m 14,5 km/h (3 Bft)
19.02.2011 03:30 0,4 C 85 % 1017,3 hPa 0,0 mm 1,6 km/h (1 Bft) O 90 0 min 0 UV-I 0 W/m 11,3 km/h (2 Bft)
19.02.2011 03:40 0,4 C 85 % 1017,2 hPa 0,0 mm 1,6 km/h (1 Bft) O 90 0 min 0 UV-I 0 W/m 4,8 km/h (1 Bft)
19.02.2011 03:50 0,4 C 85 % 1017,2 hPa 0,0 mm 1,6 km/h (1 Bft) O-NO 67 0 min 0 UV-I 0 W/m 6,4 km/h (2 Bft)
19.02.2011 04:00 0,4 C 85 % 1017,2 hPa 0,0 mm 1,6 km/h (1 Bft) O 90 0 min 0 UV-I 0 W/m 6,4 km/h (2 Bft)
19.02.2011 04:10 0,3 C 85 % 1017,2 hPa 0,0 mm 3,2 km/h (1 Bft) O 90 0 min 0 UV-I 0 W/m 8,0 km/h (2 Bft)
19.02.2011 04:20 0,3 C 85 % 1017,2 hPa 0,0 mm 3,2 km/h (1 Bft) O 90 0 min 0 UV-I 0 W/m 9,7 km/h (2 Bft)
19.02.2011 04:30 0,3 C 85 % 1017,2 hPa 0,0 mm 3,2 km/h (1 Bft) O 90 0 min 0 UV-I 0 W/m 9,7 km/h (2 Bft)
19.02.2011 04:40 0,3 C 85 % 1017,2 hPa 0,0 mm 1,6 km/h (1 Bft) O 90 0 min 0 UV-I 0 W/m 6,4 km/h (2 Bft)
19.02.2011 04:50 0,2 C 85 % 1017,3 hPa 0,0 mm 1,6 km/h (1 Bft) O 90 0 min 0 UV-I 0 W/m 4,8 km/h (1 Bft)
19.02.2011 05:00 0,2 C 85 % 1017,2 hPa 0,0 mm 1,6 km/h (1 Bft) O 90 0 min 0 UV-I 0 W/m 6,4 km/h (2 Bft)
19.02.2011 05:10 0,2 C 85 % 1017,3 hPa 0,0 mm 1,6 km/h (1 Bft) O 90 0 min 0 UV-I 0 W/m 6,4 km/h (2 Bft)
19.02.2011 05:20 0,2 C 85 % 1017,3 hPa 0,0 mm 1,6 km/h (1 Bft) O 90 0 min 0 UV-I 0 W/m 6,4 km/h (2 Bft)
19.02.2011 05:30 0,2 C 85 % 1017,3 hPa 0,0 mm 3,2 km/h (1 Bft) O 90 0 min 0 UV-I 0 W/m 8,0 km/h (2 Bft)
19.02.2011 05:40 0,2 C 85 % 1017,3 hPa 0,0 mm 1,6 km/h (1 Bft) O 90 0 min 0 UV-I 0 W/m 8,0 km/h (2 Bft)
19.02.2011 05:50 0,2 C 85 % 1017,4 hPa 0,0 mm 1,6 km/h (1 Bft) O 90 0 min 0 UV-I 0 W/m 6,4 km/h (2 Bft)
19.02.2011 06:00 0,1 C 85 % 1017,7 hPa 0,0 mm 1,6 km/h (1 Bft) O-NO 67 0 min 0 UV-I 0 W/m 4,8 km/h (1 Bft)
19.02.2011 06:10 0,1 C 85 % 1017,8 hPa 0,0 mm 1,6 km/h (1 Bft) O-NO 67 0 min 0 UV-I 0 W/m 6,4 km/h (2 Bft)
19.02.2011 06:20 0,1 C 85 % 1017,7 hPa 0,0 mm 1,6 km/h (1 Bft) O 90 0 min 0 UV-I 0 W/m 6,4 km/h (2 Bft)
19.02.2011 06:30 0,1 C 85 % 1017,7 hPa 0,0 mm 3,2 km/h (1 Bft) O 90 0 min 0 UV-I 0 W/m 6,4 km/h (2 Bft)
19.02.2011 06:40 0,1 C 85 % 1017,7 hPa 0,0 mm 3,2 km/h (1 Bft) O 90 0 min 0 UV-I 0 W/m 8,0 km/h (2 Bft)
19.02.2011 06:50 0,1 C 85 % 1017,5 hPa 0,0 mm 3,2 km/h (1 Bft) O 90 0 min 0 UV-I 0 W/m 6,4 km/h (2 Bft)
19.02.2011 07:00 0,1 C 85 % 1017,5 hPa 0,0 mm 3,2 km/h (1 Bft) O 90 0 min 0 UV-I 0 W/m 8,0 km/h (2 Bft)
19.02.2011 07:10 0,0 C 85 % 1017,5 hPa 0,0 mm 3,2 km/h (1 Bft) O 90 0 min 0 UV-I 0 W/m 8,0 km/h (2 Bft)
19.02.2011 07:20 0,0 C 85 % 1017,6 hPa 0,0 mm 4,8 km/h (1 Bft) O 90 0 min 0 UV-I 0 W/m 9,7 km/h (2 Bft)
19.02.2011 07:30 0,0 C 84 % 1017,8 hPa 0,0 mm 3,2 km/h (1 Bft) O 90 0 min 0 UV-I 0 W/m 9,7 km/h (2 Bft)
19.02.2011 07:40 -0,1 C 84 % 1017,8 hPa 0,0 mm 3,2 km/h (1 Bft) O 90 0 min 0 UV-I 0 W/m 6,4 km/h (2 Bft)
19.02.2011 07:50 -0,1 C 84 % 1017,8 hPa 0,0 mm 4,8 km/h (1 Bft) O 90 0 min 0 UV-I 0 W/m 12,9 km/h (3 Bft)
19.02.2011 08:00 -0,1 C 84 % 1017,6 hPa 0,0 mm 3,2 km/h (1 Bft) O 90 0 min 0 UV-I 7 W/m 9,7 km/h (2 Bft)
19.02.2011 08:10 -0,1 C 84 % 1017,7 hPa 0,0 mm 3,2 km/h (1 Bft) O 90 0 min 0 UV-I 12 W/m 6,4 km/h (2 Bft)
19.02.2011 08:20 -0,1 C 84 % 1017,8 hPa 0,0 mm 3,2 km/h (1 Bft) O-SO 112 0 min 0 UV-I 18 W/m 9,7 km/h (2 Bft)
19.02.2011 08:30 0,0 C 84 % 1018,0 hPa 0,0 mm 3,2 km/h (1 Bft) O-SO 112 0 min 0 UV-I 23 W/m 11,3 km/h (2 Bft)
19.02.2011 08:40 0,1 C 84 % 1018,0 hPa 0,0 mm 3,2 km/h (1 Bft) O 90 0 min 0 UV-I 25 W/m 8,0 km/h (2 Bft)
19.02.2011 08:50 0,1 C 84 % 1018,1 hPa 0,0 mm 3,2 km/h (1 Bft) O 90 0 min 0 UV-I 30 W/m 9,7 km/h (2 Bft)
19.02.2011 09:00 0,2 C 84 % 1018,1 hPa 0,0 mm 3,2 km/h (1 Bft) O-SO 112 0 min 0 UV-I 33 W/m 8,0 km/h (2 Bft)
19.02.2011 09:10 0,2 C 84 % 1018,2 hPa 0,0 mm 4,8 km/h (1 Bft) O 90 0 min 0 UV-I 44 W/m 11,3 km/h (2 Bft)
19.02.2011 09:20 0,3 C 84 % 1018,3 hPa 0,0 mm 4,8 km/h (1 Bft) O 90 0 min 0 UV-I 46 W/m 16,1 km/h (3 Bft)
19.02.2011 09:30 0,3 C 84 % 1018,4 hPa 0,0 mm 4,8 km/h (1 Bft) O 90 0 min 0 UV-I 60 W/m 11,3 km/h (2 Bft)
19.02.2011 09:40 0,4 C 84 % 1018,4 hPa 0,0 mm 4,8 km/h (1 Bft) O 90 0 min 0 UV-I 63 W/m 9,7 km/h (2 Bft)
19.02.2011 09:50 0,5 C 83 % 1018,4 hPa 0,0 mm 3,2 km/h (1 Bft) O-SO 112 0 min 0 UV-I 74 W/m 9,7 km/h (2 Bft)
19.02.2011 10:00 0,6 C 84 % 1018,3 hPa 0,0 mm 4,8 km/h (1 Bft) O-SO 112 0 min 0 UV-I 95 W/m 11,3 km/h (2 Bft)
19.02.2011 10:10 0,7 C 83 % 1018,0 hPa 0,0 mm 4,8 km/h (1 Bft) O 90 0 min 1 UV-I 114 W/m 14,5 km/h (3 Bft)
19.02.2011 10:20 0,8 C 83 % 1018,1 hPa 0,0 mm 4,8 km/h (1 Bft) O 90 0 min 1 UV-I 116 W/m 9,7 km/h (2 Bft)
19.02.2011 10:30 0,9 C 83 % 1018,1 hPa 0,0 mm 6,4 km/h (2 Bft) O 90 0 min 1 UV-I 121 W/m 17,7 km/h (3 Bft)
19.02.2011 10:40 1,0 C 82 % 1018,1 hPa 0,0 mm 6,4 km/h (2 Bft) O-SO 112 0 min 1 UV-I 135 W/m 19,3 km/h (3 Bft)
19.02.2011 10:50 1,1 C 82 % 1018,0 hPa 0,0 mm 6,4 km/h (2 Bft) O 90 0 min 1 UV-I 148 W/m 19,3 km/h (3 Bft)
19.02.2011 11:00 1,3 C 82 % 1018,1 hPa 0,0 mm 6,4 km/h (2 Bft) O 90 0 min 1 UV-I 160 W/m 17,7 km/h (3 Bft)
19.02.2011 11:10 1,4 C 81 % 1018,0 hPa 0,0 mm 8,0 km/h (2 Bft) O 90 0 min 1 UV-I 160 W/m 19,3 km/h (3 Bft)
19.02.2011 11:20 1,4 C 81 % 1018,2 hPa 0,0 mm 6,4 km/h (2 Bft) O 90 0 min 1 UV-I 167 W/m 14,5 km/h (3 Bft)
19.02.2011 11:40 1,7 C 80 % 1018,2 hPa 0,0 mm 7,0 km/h (2 Bft) O-NO 78 0 min 1 UV-I 171 W/m 16,1 km/h (3 Bft)
19.02.2011 11:50 1,8 C 79 % 1018,3 hPa 0,0 mm 6,0 km/h (2 Bft) O-NO 76 0 min 1 UV-I 166 W/m 16,1 km/h (3 Bft)
19.02.2011 12:00 2,0 C 78 % 1018,3 hPa 0,0 mm 7,3 km/h (2 Bft) SO 128 0 min 1 UV-I 167 W/m 16,1 km/h (3 Bft)
19.02.2011 12:10 2,1 C 78 % 1018,3 hPa 0,0 mm 6,8 km/h (2 Bft) O 98 0 min 1 UV-I 166 W/m 20,9 km/h (4 Bft)
19.02.2011 12:20 2,1 C 77 % 1018,4 hPa 0,0 mm 8,2 km/h (2 Bft) S-SO 161 0 min 1 UV-I 163 W/m 19,3 km/h (3 Bft)
19.02.2011 12:30 2,1 C 77 % 1018,4 hPa 0,0 mm 7,2 km/h (2 Bft) O 84 0 min 1 UV-I 150 W/m 19,3 km/h (3 Bft)
19.02.2011 12:40 2,2 C 77 % 1018,4 hPa 0,0 mm 8,5 km/h (2 Bft) O 79 0 min 1 UV-I 164 W/m 17,7 km/h (3 Bft)
19.02.2011 12:50 2,2 C 76 % 1018,2 hPa 0,0 mm 9,9 km/h (2 Bft) NO 55 0 min 1 UV-I 181 W/m 19,3 km/h (3 Bft)
19.02.2011 13:00 2,3 C 76 % 1018,0 hPa 0,0 mm 8,5 km/h (2 Bft) O-SO 115 0 min 1 UV-I 185 W/m 22,5 km/h (4 Bft)
19.02.2011 13:10 2,3 C 76 % 1018,0 hPa 0,0 mm 8,4 km/h (2 Bft) O-NO 78 0 min 1 UV-I 178 W/m 19,3 km/h (3 Bft)
19.02.2011 13:20 2,4 C 76 % 1018,0 hPa 0,0 mm 8,1 km/h (2 Bft) O 90 0 min 1 UV-I 165 W/m 16,1 km/h (3 Bft)
19.02.2011 13:30 2,4 C 75 % 1018,0 hPa 0,0 mm 8,5 km/h (2 Bft) O 84 0 min 1 UV-I 172 W/m 19,3 km/h (3 Bft)
19.02.2011 13:40 2,4 C 75 % 1017,9 hPa 0,0 mm 8,4 km/h (2 Bft) O 94 0 min 1 UV-I 189 W/m 17,7 km/h (3 Bft)
19.02.2011 13:50 2,6 C 75 % 1017,7 hPa 0,0 mm 7,3 km/h (2 Bft) O-SO 119 0 min 1 UV-I 168 W/m 19,3 km/h (3 Bft)
19.02.2011 14:00 2,6 C 74 % 1017,8 hPa 0,0 mm 8,6 km/h (2 Bft) O-SO 111 0 min 1 UV-I 163 W/m 19,3 km/h (3 Bft)
19.02.2011 14:10 2,6 C 74 % 1017,7 hPa 0,0 mm 7,0 km/h (2 Bft) O 96 0 min 1 UV-I 162 W/m 17,7 km/h (3 Bft)
19.02.2011 14:20 2,6 C 74 % 1017,8 hPa 0,0 mm 8,9 km/h (2 Bft) O-SO 113 0 min 1 UV-I 149 W/m 19,3 km/h (3 Bft)
19.02.2011 14:30 2,6 C 73 % 1017,7 hPa 0,0 mm 7,3 km/h (2 Bft) O-NO 67 0 min 1 UV-I 133 W/m 17,7 km/h (3 Bft)
19.02.2011 14:40 2,5 C 74 % 1017,7 hPa 0,0 mm 7,4 km/h (2 Bft) O-NO 71 0 min 1 UV-I 121 W/m 17,7 km/h (3 Bft)
19.02.2011 14:50 2,4 C 73 % 1017,7 hPa 0,0 mm 8,5 km/h (2 Bft) SO 126 0 min 1 UV-I 121 W/m 20,9 km/h (4 Bft)
19.02.2011 15:00 2,4 C 73 % 1017,8 hPa 0,0 mm 8,0 km/h (2 Bft) O-SO 112 0 min 1 UV-I 125 W/m 17,7 km/h (3 Bft)
19.02.2011 15:10 2,4 C 73 % 1017,7 hPa 0,0 mm 8,0 km/h (2 Bft) O 90 0 min 1 UV-I 144 W/m 17,7 km/h (3 Bft)
19.02.2011 15:20 2,4 C 74 % 1017,7 hPa 0,0 mm 6,4 km/h (2 Bft) O-SO 112 10 min 1 UV-I 188 W/m 16,1 km/h (3 Bft)
19.02.2011 15:30 2,5 C 74 % 1017,7 hPa 0,0 mm 6,4 km/h (2 Bft) O 90 10 min 1 UV-I 185 W/m 20,9 km/h (4 Bft)
19.02.2011 15:40 2,4 C 74 % 1017,8 hPa 0,0 mm 8,0 km/h (2 Bft) O 90 10 min 1 UV-I 186 W/m 20,9 km/h (4 Bft)
19.02.2011 15:50 2,4 C 74 % 1017,8 hPa 0,0 mm 6,4 km/h (2 Bft) O-SO 112 10 min 1 UV-I 200 W/m 19,3 km/h (3 Bft)
19.02.2011 16:00 2,6 C 74 % 1017,5 hPa 0,0 mm 8,2 km/h (2 Bft) SO 128 10 min 1 UV-I 227 W/m 20,9 km/h (4 Bft)
19.02.2011 16:10 2,5 C 73 % 1017,7 hPa 0,0 mm 9,7 km/h (2 Bft) O 90 10 min 1 UV-I 220 W/m 20,9 km/h (4 Bft)
19.02.2011 16:20 2,3 C 74 % 1017,7 hPa 0,0 mm 9,7 km/h (2 Bft) O 90 10 min 0 UV-I 200 W/m 25,7 km/h (4 Bft)
19.02.2011 16:30 2,2 C 74 % 1017,8 hPa 0,0 mm 9,7 km/h (2 Bft) O-SO 112 10 min 0 UV-I 176 W/m 24,1 km/h (4 Bft)
19.02.2011 16:40 2,2 C 74 % 1017,8 hPa 0,0 mm 8,0 km/h (2 Bft) O-SO 112 10 min 0 UV-I 125 W/m 20,9 km/h (4 Bft)
19.02.2011 16:50 2,1 C 73 % 1017,9 hPa 0,0 mm 9,7 km/h (2 Bft) O-SO 112 10 min 0 UV-I 72 W/m 19,3 km/h (3 Bft)
19.02.2011 17:00 2,0 C 73 % 1017,9 hPa 0,0 mm 9,7 km/h (2 Bft) O 90 0 min 0 UV-I 44 W/m 20,9 km/h (4 Bft)
19.02.2011 17:10 1,8 C 73 % 1018,0 hPa 0,0 mm 6,4 km/h (2 Bft) O-SO 112 0 min 0 UV-I 25 W/m 17,7 km/h (3 Bft)
19.02.2011 17:20 1,6 C 74 % 1018,0 hPa 0,0 mm 6,4 km/h (2 Bft) O 90 0 min 0 UV-I 19 W/m 17,7 km/h (3 Bft)
19.02.2011 17:30 1,4 C 74 % 1018,0 hPa 0,0 mm 8,0 km/h (2 Bft) O 90 0 min 0 UV-I 14 W/m 20,9 km/h (4 Bft)
19.02.2011 17:40 1,3 C 75 % 1018,0 hPa 0,0 mm 4,8 km/h (1 Bft) O 90 0 min 0 UV-I 7 W/m 14,5 km/h (3 Bft)
19.02.2011 17:50 1,2 C 76 % 1018,0 hPa 0,0 mm 6,4 km/h (2 Bft) O-SO 112 0 min 0 UV-I 0 W/m 14,5 km/h (3 Bft)
19.02.2011 18:00 1,0 C 76 % 1018,1 hPa 0,0 mm 1,6 km/h (1 Bft) O-NO 67 0 min 0 UV-I 0 W/m 11,3 km/h (2 Bft)
19.02.2011 18:10 0,9 C 76 % 1018,2 hPa 0,0 mm 3,2 km/h (1 Bft) O-SO 112 0 min 0 UV-I 0 W/m 9,7 km/h (2 Bft)
19.02.2011 18:20 0,7 C 77 % 1018,2 hPa 0,0 mm 8,0 km/h (2 Bft) O 90 0 min 0 UV-I 0 W/m 25,7 km/h (4 Bft)
19.02.2011 18:30 0,6 C 77 % 1018,2 hPa 0,0 mm 4,8 km/h (1 Bft) O-SO 112 0 min 0 UV-I 0 W/m 12,9 km/h (3 Bft)
19.02.2011 18:40 0,4 C 77 % 1018,2 hPa 0,0 mm 6,4 km/h (2 Bft) O 90 0 min 0 UV-I 0 W/m 17,7 km/h (3 Bft)
19.02.2011 18:50 0,3 C 77 % 1018,3 hPa 0,0 mm 4,8 km/h (1 Bft) O 90 0 min 0 UV-I 0 W/m 16,1 km/h (3 Bft)
19.02.2011 19:00 0,3 C 78 % 1018,3 hPa 0,0 mm 6,4 km/h (2 Bft) O-SO 112 0 min 0 UV-I 0 W/m 17,7 km/h (3 Bft)
19.02.2011 19:10 0,2 C 78 % 1018,3 hPa 0,0 mm 4,8 km/h (1 Bft) O-SO 112 0 min 0 UV-I 0 W/m 17,7 km/h (3 Bft)
19.02.2011 19:20 0,2 C 78 % 1018,3 hPa 0,0 mm 6,4 km/h (2 Bft) O 90 0 min 0 UV-I 0 W/m 17,7 km/h (3 Bft)
19.02.2011 19:30 0,1 C 78 % 1018,3 hPa 0,0 mm 4,8 km/h (1 Bft) O 90 0 min 0 UV-I 0 W/m 12,9 km/h (3 Bft)
19.02.2011 19:40 0,1 C 79 % 1018,3 hPa 0,0 mm 6,4 km/h (2 Bft) O 90 0 min 0 UV-I 0 W/m 16,1 km/h (3 Bft)
19.02.2011 19:50 0,1 C 79 % 1018,2 hPa 0,0 mm 6,4 km/h (2 Bft) O 90 0 min 0 UV-I 0 W/m 17,7 km/h (3 Bft)
19.02.2011 20:00 0,1 C 79 % 1018,2 hPa 0,0 mm 4,8 km/h (1 Bft) O 90 0 min 0 UV-I 0 W/m 16,1 km/h (3 Bft)
19.02.2011 20:10 0,1 C 79 % 1018,2 hPa 0,0 mm 6,4 km/h (2 Bft) O 90 0 min 0 UV-I 0 W/m 16,1 km/h (3 Bft)
19.02.2011 20:20 0,0 C 79 % 1018,2 hPa 0,0 mm 4,8 km/h (1 Bft) O 90 0 min 0 UV-I 0 W/m 16,1 km/h (3 Bft)
19.02.2011 20:30 0,0 C 79 % 1018,3 hPa 0,0 mm 4,8 km/h (1 Bft) O 90 0 min 0 UV-I 0 W/m 20,9 km/h (4 Bft)
19.02.2011 20:40 0,0 C 79 % 1018,1 hPa 0,0 mm 4,8 km/h (1 Bft) O 90 0 min 0 UV-I 0 W/m 16,1 km/h (3 Bft)
19.02.2011 20:50 0,0 C 80 % 1018,2 hPa 0,0 mm 4,8 km/h (1 Bft) O 90 0 min 0 UV-I 0 W/m 14,5 km/h (3 Bft)
19.02.2011 21:00 0,0 C 80 % 1018,3 hPa 0,0 mm 1,6 km/h (1 Bft) O 90 0 min 0 UV-I 0 W/m 11,3 km/h (2 Bft)
19.02.2011 21:10 -0,1 C 80 % 1018,4 hPa 0,0 mm 3,2 km/h (1 Bft) O-SO 112 0 min 0 UV-I 0 W/m 14,5 km/h (3 Bft)
19.02.2011 21:20 -0,1 C 79 % 1018,5 hPa 0,0 mm 8,0 km/h (2 Bft) O-SO 112 0 min 0 UV-I 0 W/m 20,9 km/h (4 Bft)
19.02.2011 21:30 -0,2 C 78 % 1018,5 hPa 0,0 mm 6,4 km/h (2 Bft) O-SO 112 0 min 0 UV-I 0 W/m 17,7 km/h (3 Bft)
19.02.2011 21:40 -0,2 C 78 % 1018,5 hPa 0,0 mm 9,7 km/h (2 Bft) O-SO 112 0 min 0 UV-I 0 W/m 25,7 km/h (4 Bft)
19.02.2011 21:50 -0,3 C 78 % 1018,3 hPa 0,0 mm 9,7 km/h (2 Bft) O 90 0 min 0 UV-I 0 W/m 22,5 km/h (4 Bft)
19.02.2011 22:00 -0,2 C 78 % 1018,3 hPa 0,0 mm 8,0 km/h (2 Bft) O 90 0 min 0 UV-I 0 W/m 22,5 km/h (4 Bft)
19.02.2011 22:10 -0,2 C 78 % 1018,1 hPa 0,0 mm 8,0 km/h (2 Bft) O 90 0 min 0 UV-I 0 W/m 20,9 km/h (4 Bft)
19.02.2011 22:20 -0,2 C 77 % 1018,1 hPa 0,0 mm 8,0 km/h (2 Bft) O 90 0 min 0 UV-I 0 W/m 24,1 km/h (4 Bft)
19.02.2011 22:30 -0,2 C 77 % 1018,2 hPa 0,0 mm 8,0 km/h (2 Bft) O 90 0 min 0 UV-I 0 W/m 20,9 km/h (4 Bft)
19.02.2011 22:40 -0,2 C 77 % 1018,1 hPa 0,0 mm 6,4 km/h (2 Bft) O 90 0 min 0 UV-I 0 W/m 20,9 km/h (4 Bft)
19.02.2011 22:50 -0,3 C 77 % 1018,0 hPa 0,0 mm 4,8 km/h (1 Bft) O 90 0 min 0 UV-I 0 W/m 19,3 km/h (3 Bft)
19.02.2011 23:00 -0,3 C 77 % 1017,9 hPa 0,0 mm 6,4 km/h (2 Bft) O-SO 112 0 min 0 UV-I 0 W/m 17,7 km/h (3 Bft)
19.02.2011 23:10 -0,3 C 77 % 1017,8 hPa 0,0 mm 6,4 km/h (2 Bft) O-SO 112 0 min 0 UV-I 0 W/m 19,3 km/h (3 Bft)
19.02.2011 23:20 -0,4 C 77 % 1017,9 hPa 0,0 mm 9,7 km/h (2 Bft) O-SO 112 0 min 0 UV-I 0 W/m 20,9 km/h (4 Bft)
19.02.2011 23:30 -0,4 C 77 % 1017,9 hPa 0,0 mm 8,0 km/h (2 Bft) O-SO 112 0 min 0 UV-I 0 W/m 20,9 km/h (4 Bft)
19.02.2011 23:40 -0,4 C 77 % 1017,9 hPa 0,0 mm 8,0 km/h (2 Bft) O-SO 112 0 min 0 UV-I 0 W/m 16,1 km/h (3 Bft)
19.02.2011 23:50 -0,4 C 77 % 1017,9 hPa 0,0 mm 6,4 km/h (2 Bft) O-SO 112 0 min 0 UV-I 0 W/m 19,3 km/h (3 Bft)
_ Min-Zeit 23:40 14:30 03:00 - 00:40 - - - - - 01:20
Minimum _ -0,5 C 73 % 1017,1 hPa - 1,6 km/h (1 Bft) - - - - - 4,8 km/h (1 Bft)
_ Max-Zeit 13:50 00:00 21:20 00:00 12:50 - - 15:20 13:00 16:00 16:20
Maximum _ 2,6 C 85 % 1018,5 hPa 0,0 mm 9,9 km/h
NO (2 Bft)
- - 10 min 1 UV-I 227 W/m 25,7 km/h
O-SO (4 Bft)
Durchschnitt _ 0,7 C 80 % 1017,9 hPa #0,0 mm 5,2 km/h (1 Bft) O - #1:40 h 1 UV-I 121 W/m 14,0 km/h (3 Bft)